Location: Broletto
(44.6000°N, 10.5833°E)
Time: 07:46:47
(UTC+00:00)

Timation 2 Rocket - Pass Details

Date: 18 April 2021
Orbit: 907 x 1074 km, 70.0° (Epoch: 06 May)

Event Time Altitude Azimuth Distance (km) Brightness Sun altitude
Exits shadow 20:10:13 27° 166° (SSE) 1,837 5.0 -20.1°
Maximum altitude 20:13:25 47° 109° (ESE) 1,306 4.2 -20.5°
Drops below altitude 10° 20:19:28 10° 38° (NE) 2,732 6.4 -21.3°
Sets 20:22:03 0° 32° (NNE) 3,658 7.1 -21.7°
